{"data":{"norad_id":48691,"intl_designator":"2021-044BF","name":"STARLINK-2750","alt_names":[],"object_type":"PAYLOAD","status":"ACTIVE","operator":null,"country":"US","launch_date":"2021-05-26","launch_site_code":"AFETR","launch_vehicle":null,"mission":null,"orbit_class":"UNKNOWN","rcs_meters":null,"size_class":null,"mass_kg":null,"dimensions":null,"purposes":["comms"],"wikipedia_slug":null,"has_3d_model":false,"image_url":null,"decayed_at":null,"tle_current":{"epoch":"2026-05-25T02:39:27.028800Z","epoch_age_seconds":61648,"freshness":"FRESH","line1":"1 48691U 21044BF  26145.11072950  .00001565  00000+0  62175-4 0  9993","line2":"2 48691  53.1592  79.8703 0000955  90.1708 269.9402 15.31703425276067","mean_motion":15.31703425,"eccentricity":9.55e-5,"inclination_deg":53.1592,"raan_deg":79.8703,"arg_perigee_deg":90.1708,"mean_anomaly_deg":269.9402,"bstar":6.2175e-5,"rev_number":27606,"period_min":94.012977740779,"perigee_km":470.07571871988,"apogee_km":471.38385227591,"semimajor_km":6848.8667854979,"source":"CELESTRAK","updated_at":"2026-05-25T13:38:16.762627Z"}}}